GW3294 Weather Reports


Display with metric or nautical units.
time (UTC)temp
F
wind
direction
speed
MPH
gust
MPH
rain 1hr
in
rain 24hr
in
rain mn
in
humidity
%
barometer
mb
20260510180027 70 156 0.0 6.0 0.00 0.05 0.05 44 1022.0
20260510175521 71 192 1.0 3.0 0.00 0.05 0.05 40 1021.9
20260510175013 70 171 2.0 5.0 0.00 0.05 0.05 37 1022.1
20260510174511 71 239 3.0 5.0 0.00 0.05 0.05 39 1021.9
20260510174007 70 189 0.0 8.0 0.00 0.05 0.05 42 1022.1
20260510173503 69 323 1.0 5.0 0.00 0.05 0.05 48 1022.2
20260510172959 68 139 2.0 4.0 0.00 0.05 0.05 52 1022.5
20260510172455 67 135 2.0 4.0 0.00 0.05 0.05 48 1022.4
20260510171951 66 190 3.0 6.0 0.00 0.05 0.05 48 1022.4
20260510171448 65 287 2.0 4.0 0.00 0.05 0.05 46 1022.3
20260510170945 65 292 1.0 5.0 0.00 0.05 0.05 55 1022.3
20260510170442 66 124 0.0 3.0 0.00 0.05 0.05 59 1022.3
20260510165937 65 24 2.0 5.0 0.00 0.05 0.05 60 1022.3
20260510165434 66 142 0.0 6.0 0.00 0.05 0.05 51 1022.2
20260510164931 66 38 0.0 2.0 0.00 0.05 0.05 57 1022.3
20260510164428 66 142 0.0 5.0 0.00 0.05 0.05 48 1022.3
20260510163923 67 132 2.0 3.0 0.00 0.05 0.05 51 1022.3
20260510163419 67 129 0.0 4.0 0.00 0.05 0.05 53 1022.5
20260510162914 67 187 0.0 3.0 0.00 0.05 0.05 48 1022.7
20260510162412 68 144 2.0 4.0 0.00 0.05 0.05 46 1022.6
20260510161907 68 153 4.0 8.0 0.00 0.05 0.05 46 1022.6
20260510161402 67 143 5.0 5.0 0.00 0.05 0.05 49 1022.6
20260510160859 65 322 2.0 3.0 0.00 0.05 0.05 54 1022.7
20260510160357 64 141 0.0 5.0 0.00 0.05 0.05 48 1022.5
20260510155850 63 138 2.0 4.0 0.00 0.05 0.05 56 1022.5
20260510155348 64 285 2.0 5.0 0.00 0.05 0.05 50 1022.4
20260510154843 64 246 1.0 3.0 0.00 0.05 0.05 58 1022.5
20260510154340 65 208 0.0 4.0 0.00 0.05 0.05 59 1022.3
20260510153834 66 138 3.0 5.0 0.00 0.05 0.05 62 1022.4
20260510153330 66 211 1.0 5.0 0.00 0.05 0.05 54 1021.9
20260510152827 65 189 3.0 4.0 0.00 0.05 0.05 47 1022.1
20260510152324 65 184 3.0 6.0 0.00 0.05 0.05 60 1022.0
20260510151820 65 282 2.0 6.0 0.00 0.05 0.05 55 1021.6
20260510151318 64 178 1.0 3.0 0.00 0.05 0.05 69 1021.8
20260510150814 62 147 0.0 3.0 0.00 0.05 0.05 73 1021.9
20260510150310 61 17 0.0 3.0 0.00 0.05 0.05 69 1021.8
20260510145806 62 148 0.0 2.0 0.00 0.05 0.05 73 1021.7
20260510145305 62 134 1.0 5.0 0.00 0.05 0.05 66 1021.7
20260510144759 63 117 2.0 5.0 0.00 0.05 0.05 65 1021.6
20260510144256 63 163 2.0 3.0 0.00 0.05 0.05 67 1021.6
20260510143755 62 142 0.0 3.0 0.00 0.05 0.05 70 1021.1
20260510143251 61 136 2.0 5.0 0.00 0.05 0.05 72 1021.3
20260510142748 61 145 1.0 3.0 0.00 0.05 0.05 78 1021.0
20260510142245 60 342 0.0 2.0 0.00 0.05 0.05 81 1021.1
20260510141742 59 291 0.0 2.0 0.00 0.05 0.05 82 1020.8
20260510141240 59 157 3.0 6.0 0.00 0.05 0.05 83 1020.6
20260510140737 58 23 1.0 3.0 0.00 0.05 0.05 87 1020.7
20260510140232 57 136 0.0 1.0 0.00 0.05 0.05 87 1020.8
20260510135726 56 224 0.0 3.0 0.00 0.05 0.05 84 1020.7
20260510135222 56 8 2.0 7.0 0.00 0.05 0.05 87 1020.9
20260510134720 56 158 3.0 3.0 0.00 0.05 0.05 92 1021.0
20260510134217 56 315 0.0 3.0 0.00 0.05 0.05 92 1020.9
20260510133713 56 66 0.0 2.0 0.00 0.05 0.05 92 1021.3
20260510133208 56 129 0.0 2.0 0.00 0.05 0.05 91 1020.9
20260510132705 55 64 1.0 2.0 0.00 0.05 0.05 92 1021.3
20260510132202 55 44 0.0 1.0 0.00 0.05 0.05 94 1020.9
20260510131700 54 93 0.0 2.0 0.00 0.05 0.05 95 1021.0
20260510131157 55 136 0.0 2.0 0.00 0.05 0.05 96 1020.8
20260510130653 55 113 0.0 2.0 0.00 0.05 0.05 97 1020.7
20260510130150 55 235 0.0 5.0 0.00 0.05 0.05 96 1020.6
20260510125646 55 122 0.0 3.0 0.00 0.05 0.05 97 1020.6
20260510125143 55 117 0.0 1.0 0.00 0.05 0.05 97 1020.4
20260510124640 54 133 2.0 2.0 0.00 0.05 0.05 97 1020.4
20260510124137 54 121 0.0 2.0 0.00 0.05 0.05 98 1020.3
20260510123632 54 87 0.0 2.0 0.00 0.05 0.05 98 1020.1
20260510123128 54 119 0.0 2.0 0.00 0.05 0.05 98 1020.2
20260510122624 54 61 0.0 2.0 0.00 0.05 0.05 98 1020.2
20260510122121 54 65 0.0 2.0 0.00 0.05 0.05 98 1020.0
20260510121618 54 74 1.0 2.0 0.00 0.05 0.05 99 1020.1
20260510121115 54 55 0.0 2.0 0.00 0.05 0.05 99 1020.0
20260510120613 54 50 0.0 2.0 0.00 0.05 0.05 99 1019.9
20260510120108 54 95 0.0 2.0 0.00 0.05 0.05 99 1019.9
20260510115605 54 104 1.0 2.0 0.00 0.05 0.05 99 1019.9
20260510115103 54 126 0.0 2.0 0.00 0.05 0.05 99 1019.4
20260510114558 54 129 1.0 2.0 0.00 0.05 0.05 99 1019.6
20260510114054 54 131 0.0 2.0 0.00 0.05 0.05 99 1019.3
20260510113549 54 122 1.0 3.0 0.00 0.05 0.05 99 1018.9
20260510113047 54 113 0.0 3.0 0.00 0.05 0.05 99 1018.7
20260510112544 54 132 3.0 3.0 0.00 0.05 0.05 99 1018.6
20260510112040 55 83 2.0 2.0 0.00 0.05 0.05 99 1018.7
20260510111537 55 130 0.0 3.0 0.00 0.05 0.05 99 1018.6
20260510111033 55 117 0.0 2.0 0.00 0.05 0.05 99 1018.4
20260510110529 55 116 2.0 2.0 0.00 0.05 0.05 99 1018.4
20260510110026 55 113 1.0 2.0 0.00 0.05 0.05 99 1018.1
20260510105520 55 138 2.0 3.0 0.00 0.05 0.05 99 1018.2
20260510105016 55 118 1.0 2.0 0.00 0.05 0.05 99 1018.1
20260510104513 55 109 1.0 2.0 0.00 0.05 0.05 99 1018.0
20260510104009 55 111 1.0 2.0 0.00 0.05 0.05 99 1018.0
20260510103507 55 103 0.0 2.0 0.00 0.05 0.05 99 1017.7
20260510103002 55 89 0.0 2.0 0.00 0.05 0.05 99 1018.0
20260510102458 55 124 0.0 0.0 0.00 0.05 0.05 99 1017.8
20260510101954 55 60 0.0 1.0 0.00 0.05 0.05 99 1017.7
20260510101452 55 102 0.0 2.0 0.00 0.05 0.05 98 1017.6
20260510100950 55 115 0.0 1.0 0.00 0.05 0.05 98 1017.5
20260510100446 55 122 1.0 2.0 0.00 0.05 0.05 98 1017.5
20260510095943 55 99 0.0 2.0 0.00 0.05 0.05 98 1017.4
20260510095439 56 89 0.0 1.0 0.00 0.05 0.05 98 1017.5
20260510094938 56 95 0.0 2.0 0.00 0.05 0.05 98 1017.3
20260510094433 56 89 0.0 1.0 0.00 0.05 0.05 98 1017.4
20260510093929 56 77 0.0 2.0 0.00 0.05 0.05 98 1017.3
20260510093424 56 129 0.0 1.0 0.00 0.05 0.05 98 1017.6
20260510092921 56 96 0.0 1.0 0.00 0.05 0.05 98 1017.5
20260510092418 56 129 0.0 0.0 0.00 0.05 0.05 98 1017.4
20260510091913 56 129 0.0 1.0 0.00 0.05 0.05 98 1017.5
20260510091410 56 113 0.0 1.0 0.00 0.05 0.05 98 1017.3
20260510090907 57 130 0.0 0.0 0.00 0.05 0.05 98 1017.3
20260510090403 57 135 0.0 2.0 0.00 0.05 0.05 98 1016.6
20260510085859 57 142 0.0 1.0 0.00 0.05 0.05 98 1016.8
20260510085353 57 44 0.0 1.0 0.00 0.05 0.05 98 1016.8
20260510084844 57 142 0.0 1.0 0.00 0.05 0.05 98 1016.7
20260510084342 57 160 0.0 0.0 0.00 0.05 0.05 98 1016.5
20260510083838 57 160 0.0 1.0 0.00 0.05 0.05 98 1016.4
20260510083334 57 49 0.0 0.0 0.00 0.05 0.05 98 1016.5
20260510082830 57 49 0.0 0.0 0.00 0.05 0.05 98 1016.3
20260510082327 57 49 0.0 1.0 0.00 0.05 0.05 98 1016.4
20260510081826 58 119 0.0 1.0 0.00 0.05 0.05 98 1016.3
20260510081317 58 76 0.0 0.0 0.00 0.05 0.05 98 1016.1
20260510080813 58 76 0.0 0.0 0.00 0.05 0.05 98 1015.9
20260510080307 58 89 0.0 1.0 0.00 0.05 0.05 98 1015.8
20260510075805 58 79 0.0 1.0 0.00 0.05 0.05 99 1015.9
20260510075305 58 74 1.0 2.0 0.00 0.05 0.05 99 1015.6
20260510074759 58 135 0.0 0.0 0.00 0.05 0.05 99 1015.9
20260510074256 58 44 0.0 0.0 0.00 0.05 0.05 99 1015.8
20260510073752 58 44 0.0 1.0 0.00 0.05 0.05 99 1015.9
20260510073248 58 37 0.0 1.0 0.00 0.05 0.05 99 1015.6
20260510072744 58 309 0.0 0.0 0.00 0.05 0.05 99 1015.5
20260510072241 59 269 0.0 1.0 0.00 0.05 0.05 99 1015.6
20260510071737 59 329 0.0 1.0 0.00 0.05 0.05 99 1015.2
20260510071234 59 129 0.0 0.0 0.00 0.05 0.05 99 1015.1
20260510070733 59 129 0.0 2.0 0.00 0.05 0.05 99 1015.1
20260510070229 59 89 0.0 0.0 0.00 0.05 0.05 99 1015.2
20260510065724 59 130 0.0 2.0 0.00 0.05 0.05 99 1014.9
20260510065221 59 129 0.0 1.0 0.00 0.05 0.05 99 1015.4
20260510064717 60 246 0.0 1.0 0.00 0.05 0.05 99 1015.2
20260510064215 60 129 0.0 1.0 0.00 0.05 0.05 99 1015.5
20260510063711 60 89 0.0 1.0 0.00 0.05 0.05 99 1015.4
20260510063207 60 256 0.0 0.0 0.00 0.05 0.05 99 1015.4
20260510062704 60 141 0.0 0.0 0.00 0.05 0.05 99 1015.6
20260510062201 60 23 0.0 2.0 0.00 0.05 0.05 99 1015.2
20260510061655 60 142 0.0 1.0 0.00 0.05 0.05 99 1015.1
20260510061153 60 113 1.0 2.0 0.00 0.05 0.05 99 1015.4
20260510060649 60 130 0.0 2.0 0.02 0.05 0.05 99 1015.1
20260510060146 60 252 0.0 2.0 0.12 0.05 0.05 99 1014.6
20260510055642 60 284 1.0 2.0 0.07 0.04 0.04 98 1014.2
20260510055140 60 141 2.0 3.0 0.07 0.03 0.03 98 1014.2
20260510054636 60 65 1.0 2.0 0.09 0.03 0.03 98 1014.1
20260510054132 60 50 2.0 3.0 0.02 0.02 0.02 98 1014.3
20260510053631 60 103 0.0 1.0 0.02 0.01 0.01 98 1014.8
20260510053128 60 235 0.0 0.0 0.02 0.01 0.01 98 1014.7
20260510052624 60 291 2.0 2.0 0.00 0.01 0.01 98 1014.6
20260510052120 60 68 0.0 3.0 0.02 0.01 0.01 97 1014.4
20260510051615 60 224 0.0 2.0 0.05 0.01 0.01 97 1014.5
20260510051112 60 126 1.0 2.0 0.02 0.00 0.00 97 1014.9
20260510050610 60 111 3.0 3.0 0.02 0.00 0.00 97 1014.6
20260510050107 60 290 0.0 1.0 0.02 0.00 0.00 97 1015.0
20260510045604 60 81 0.0 3.0 0.00 0.03 0.03 96 1015.2
20260510045100 60 108 1.0 3.0 0.05 0.03 0.03 96 1015.2
20260510044556 61 147 0.0 4.0 0.02 0.03 0.03 96 1015.1
20260510044054 61 150 0.0 3.0 0.00 0.02 0.02 95 1015.4
20260510043549 61 136 2.0 4.0 0.02 0.02 0.02 95 1015.2
20260510043045 61 165 0.0 4.0 0.02 0.02 0.02 95 1014.8
20260510042538 61 124 3.0 5.0 0.00 0.02 0.02 95 1014.7
20260510042033 61 151 5.0 5.0 0.00 0.02 0.02 95 1014.6
20260510041531 61 261 0.0 4.0 0.00 0.02 0.02 95 1014.3
20260510041029 61 105 2.0 5.0 0.02 0.02 0.02 94 1014.2
20260510040525 61 114 3.0 6.0 0.05 0.02 0.02 93 1014.7
20260510040021 62 134 5.0 9.0 0.05 0.02 0.02 92 1014.9
20260510035518 62 124 4.0 7.0 0.02 0.01 0.01 92 1014.9
20260510035017 62 27 2.0 7.0 0.00 0.01 0.01 90 1014.8
20260510034516 62 101 2.0 8.0 0.02 0.01 0.01 89 1014.8
20260510034012 63 172 3.0 9.0 0.05 0.01 0.01 88 1014.9
20260510033508 64 218 4.0 11.0 0.02 0.00 0.00 84 1014.4
20260510033007 66 130 8.0 11.0 0.00 0.00 0.00 77 1014.5
20260510032502 64 179 4.0 11.0 0.00 0.00 0.00 77 1014.3
20260510031957 63 267 3.0 3.0 0.00 0.00 0.00 81 1013.3
20260510031453 64 37 0.0 1.0 0.00 0.00 0.00 76 1012.7
20260510030949 64 155 1.0 2.0 0.00 0.00 0.00 75 1012.8
20260510030444 64 119 1.0 2.0 0.00 0.00 0.00 75 1012.8
20260510025942 65 126 0.0 2.0 0.00 0.00 0.00 73 1012.6
20260510025439 65 132 0.0 1.0 0.00 0.00 0.00 72 1012.5
20260510024937 65 98 0.0 2.0 0.00 0.00 0.00 72 1012.4
20260510024433 65 95 1.0 2.0 0.00 0.00 0.00 73 1012.2
20260510023929 65 106 0.0 2.0 0.00 0.00 0.00 71 1012.1
20260510023425 66 121 1.0 2.0 0.00 0.00 0.00 71 1012.2
20260510022923 66 119 0.0 2.0 0.00 0.00 0.00 72 1012.4
20260510022421 66 110 1.0 2.0 0.00 0.00 0.00 70 1012.4
20260510021920 66 126 0.0 2.0 0.00 0.00 0.00 69 1012.0
20260510021419 66 107 0.0 2.0 0.00 0.00 0.00 68 1012.2
20260510020915 66 78 0.0 2.0 0.00 0.00 0.00 69 1011.9
20260510020410 66 95 0.0 2.0 0.00 0.00 0.00 70 1011.9
20260510015906 66 103 2.0 2.0 0.00 0.00 0.00 69 1011.6
20260510015402 67 116 0.0 2.0 0.00 0.00 0.00 68 1011.4
20260510014857 67 97 1.0 2.0 0.00 0.00 0.00 68 1011.5
20260510014355 68 94 1.0 2.0 0.00 0.00 0.00 66 1011.4
20260510013851 68 104 1.0 2.0 0.00 0.00 0.00 65 1011.5
20260510013347 69 89 0.0 2.0 0.00 0.00 0.00 67 1011.5
20260510012847 70 95 1.0 2.0 0.00 0.00 0.00 65 1011.3
20260510012342 70 89 0.0 2.0 0.00 0.00 0.00 62 1011.4
20260510011837 71 116 0.0 2.0 0.00 0.00 0.00 61 1011.3
20260510011332 71 107 0.0 2.0 0.00 0.00 0.00 61 1011.2
20260510010829 71 97 1.0 2.0 0.00 0.00 0.00 60 1011.2
20260510010326 72 76 1.0 2.0 0.00 0.00 0.00 59 1011.3
20260510005823 73 100 0.0 2.0 0.00 0.00 0.00 56 1011.1
20260510005319 73 141 0.0 2.0 0.00 0.00 0.00 55 1011.1
20260510004817 74 95 0.0 2.0 0.00 0.00 0.00 54 1010.9
20260510004314 74 124 0.0 2.0 0.00 0.00 0.00 53 1010.9
20260510003812 74 144 0.0 2.0 0.00 0.00 0.00 53 1010.8
20260510003308 75 103 0.0 1.0 0.00 0.00 0.00 53 1010.8
20260510002807 75 154 0.0 1.0 0.00 0.00 0.00 52 1010.9
20260510002307 76 106 0.0 1.0 0.00 0.00 0.00 50 1010.9
20260510001801 77 147 0.0 1.0 0.00 0.00 0.00 50 1010.9
20260510001300 77 122 0.0 2.0 0.00 0.00 0.00 48 1010.7
20260510000754 77 62 0.0 1.0 0.00 0.00 0.00 46 1010.9
20260510000253 78 217 0.0 2.0 0.00 0.00 0.00 46 1010.6
20260509235750 79 142 0.0 1.0 0.00 0.00 0.00 45 1010.6
20260509235246 79 250 0.0 3.0 0.00 0.00 0.00 39 1010.7
20260509234742 79 129 0.0 1.0 0.00 0.00 0.00 41 1010.8
20260509234239 80 228 2.0 3.0 0.00 0.00 0.00 45 1010.7
20260509233737 80 269 0.0 1.0 0.00 0.00 0.00 41 1010.7
20260509233234 80 230 0.0 2.0 0.00 0.00 0.00 42 1010.4
20260509232730 80 357 1.0 3.0 0.00 0.00 0.00 40 1010.6
20260509232227 79 274 1.0 5.0 0.00 0.00 0.00 38 1010.6
20260509231724 80 281 1.0 4.0 0.00 0.00 0.00 42 1010.5
20260509231221 81 264 2.0 3.0 0.00 0.00 0.00 37 1010.4
20260509230719 81 264 0.0 6.0 0.00 0.00 0.00 37 1010.7
20260509230215 81 333 0.0 3.0 0.00 0.00 0.00 41 1010.4
20260509225711 81 248 0.0 3.0 0.00 0.00 0.00 41 1010.6
20260509225207 81 221 3.0 5.0 0.00 0.00 0.00 38 1010.6
20260509224702 81 251 0.0 5.0 0.00 0.00 0.00 38 1010.6
20260509224200 82 163 0.0 3.0 0.00 0.00 0.00 42 1010.2
20260509223656 82 237 2.0 3.0 0.00 0.00 0.00 37 1010.4
20260509223153 82 190 2.0 7.0 0.00 0.00 0.00 37 1010.5
20260509222650 85 229 2.0 7.0 0.00 0.00 0.00 36 1010.4
20260509222146 84 322 0.0 5.0 0.00 0.00 0.00 38 1010.5
20260509221642 84 289 1.0 7.0 0.00 0.00 0.00 38 1010.6
20260509221138 84 256 2.0 8.0 0.00 0.00 0.00 35 1010.5
20260509220634 87 245 1.0 3.0 0.00 0.00 0.00 39 1010.5
20260509220130 88 255 2.0 5.0 0.00 0.00 0.00 36 1010.4
20260509215627 86 213 1.0 5.0 0.00 0.00 0.00 39 1010.8
20260509215123 86 177 2.0 5.0 0.00 0.00 0.00 39 1010.5
20260509214621 88 202 0.0 3.0 0.00 0.00 0.00 38 1010.5
20260509214117 87 142 1.0 6.0 0.00 0.00 0.00 35 1010.6
20260509213613 85 240 3.0 5.0 0.00 0.00 0.00 41 1010.5
20260509213110 85 195 2.0 5.0 0.00 0.00 0.00 37 1010.7
20260509212607 84 277 3.0 4.0 0.00 0.00 0.00 37 1010.4
20260509212104 87 323 2.0 5.0 0.00 0.00 0.00 37 1010.6
20260509211600 89 125 2.0 3.0 0.00 0.00 0.00 34 1010.5
20260509211057 90 244 2.0 3.0 0.00 0.00 0.00 37 1010.6
20260509210553 87 265 2.0 4.0 0.00 0.00 0.00 39 1010.7
20260509210050 85 207 1.0 5.0 0.00 0.00 0.00 41 1010.9
20260509205544 89 165 1.0 5.0 0.00 0.00 0.00 36 1010.9
20260509205039 90 258 2.0 4.0 0.00 0.00 0.00 37 1010.8
20260509204536 89 244 1.0 3.0 0.00 0.00 0.00 40 1010.8
20260509204032 88 299 2.0 3.0 0.00 0.00 0.00 36 1011.0
20260509203528 87 242 0.0 5.0 0.00 0.00 0.00 40 1011.0
20260509203027 87 257 2.0 3.0 0.00 0.00 0.00 38 1011.0
20260509202526 87 272 4.0 4.0 0.00 0.00 0.00 39 1011.0
20260509202022 87 224 1.0 5.0 0.00 0.00 0.00 40 1011.3
20260509201517 84 220 1.0 7.0 0.00 0.00 0.00 39 1011.0
20260509201015 86 216 2.0 5.0 0.00 0.00 0.00 35 1011.0
20260509200510 86 210 2.0 7.0 0.00 0.00 0.00 38 1011.2
20260509200006 85 252 3.0 9.0 0.00 0.00 0.00 38 1011.1
20260509195501 86 108 7.0 7.0 0.00 0.00 0.00 41 1011.2
20260509194956 84 107 3.0 6.0 0.00 0.00 0.00 39 1011.0
20260509194452 86 208 3.0 6.0 0.00 0.00 0.00 40 1011.1
20260509193949 86 83 1.0 3.0 0.00 0.00 0.00 39 1011.3
20260509193449 84 280 3.0 4.0 0.00 0.00 0.00 39 1011.2
20260509192945 84 274 2.0 3.0 0.00 0.00 0.00 42 1011.4
20260509192442 81 292 3.0 6.0 0.00 0.00 0.00 40 1011.3
20260509191937 82 284 3.0 5.0 0.00 0.00 0.00 41 1011.2
20260509191432 82 41 4.0 7.0 0.00 0.00 0.00 41 1011.2
20260509190928 83 42 5.0 7.0 0.00 0.00 0.00 41 1011.5
20260509190426 83 11 2.0 7.0 0.00 0.00 0.00 40 1011.4
20260509185924 84 186 3.0 4.0 0.00 0.00 0.00 42 1011.7
20260509185421 83 231 1.0 4.0 0.00 0.00 0.00 49 1011.6
20260509184917 83 357 1.0 6.0 0.00 0.00 0.00 45 1011.5
20260509184415 82 216 2.0 6.0 0.00 0.00 0.00 44 1011.4
20260509183911 83 201 3.0 8.0 0.00 0.00 0.00 41 1011.4
20260509183406 82 279 3.0 5.0 0.00 0.00 0.00 45 1011.4
20260509182902 82 287 0.0 6.0 0.00 0.00 0.00 43 1011.6
20260509182359 81 13 3.0 7.0 0.00 0.00 0.00 48 1011.7
20260509181856 82 144 2.0 7.0 0.00 0.00 0.00 43 1011.5
20260509181354 82 178 1.0 9.0 0.00 0.00 0.00 49 1011.6
20260509180851 82 357 2.0 4.0 0.00 0.00 0.00 45 1011.5